Weather History for New Castle, PA

Change the Weather History Date:

Thursday, January 2, 2014

  Actual Average Record
Temperature  
Mean Temperature 15 °F -  
Max Temperature 22 °F 36 °F 68 °F (1985)
Min Temperature 8 °F 20 °F -5 °F (1945)
Degree Days  
Heating Degree Days 50    
Moisture  
Dew Point 13 °F    
Average Humidity 87    
Maximum Humidity 93    
Minimum Humidity 76    
Precipitation  
Precipitation 0.01 in - - ()
Sea Level Pressure  
Sea Level Pressure 29.89 in    
Wind  
Wind Speed 7 mph (North)    
Max Wind Speed 20 mph    
Max Gust Speed 26 mph    
Visibility 3 miles    
Events Fog , Snow    
Averages and records for this station are not official NWS values.
T = Trace of Precipitation, MM = Missing Value Source: NWS Daily Summary

Daily Weather History Graph

Daily Weather History Graph

Search for Another Location

Airport:

Trip Planner

Search our weather history database for the weather conditions in past years. The results will help you decide how hot, cold, wet, or windy it might be!

Date:

Astronomy

Jan. 02, 2014 Rise Set
Actual Time 7:46 AM EST 5:04 PM EST
Civil Twilight 7:15 AM EST 5:35 PM EST
Nautical Twilight 6:41 AM EST 6:10 PM EST
Astronomical Twilight 6:07 AM EST 6:43 PM EST
Moon 8:25 AM EST (1/2) 7:01 PM EST (1/2)
Length of Visible Light 10h 20m
Length of Day
9h 18m
New Moon, 2% of the Moon is Illuminated
Jan 2
New Moon
Jan 7
First Quarter
Jan 15
Full
Jan 24
Last Quarter
Jan 30
New

Hourly Weather History & Observations

Time (EST) Temp. Windchill Dew Point Humidity Pressure Visibility Wind Dir Wind Speed Gust Speed Precip Events Conditions
12:56 AM 22.1 °F - 18.1 °F 85% 30.16 in 10.0 mi Calm Calm - N/A   Partly Cloudy
1:27 AM 21.2 °F 12.6 °F 19.4 °F 93% 30.04 in 4.0 mi NE 6.9 mph - 0.00 in Snow Light Snow
1:37 AM 21.2 °F 12.6 °F 19.4 °F 93% 30.04 in 4.0 mi NNE 6.9 mph - 0.00 in Snow Light Snow
1:56 AM 22.1 °F 17.4 °F 19.0 °F 88% 30.14 in 10.0 mi North 3.5 mph - 0.00 in Snow Light Snow
2:56 AM 21.0 °F 13.4 °F 18.1 °F 89% 30.13 in 10.0 mi North 5.8 mph - 0.00 in   Clear
3:56 AM 21.0 °F - 18.1 °F 89% 30.11 in 10.0 mi Calm Calm - N/A   Partly Cloudy
4:56 AM 21.0 °F 12.4 °F 17.1 °F 85% 30.07 in 10.0 mi NNE 6.9 mph - N/A   Mostly Cloudy
5:56 AM 19.0 °F 11.1 °F 16.2 °F 89% 30.06 in 10.0 mi NNW 5.8 mph - N/A   Partly Cloudy
6:40 AM 19.4 °F - 17.6 °F 93% 29.96 in 10.0 mi Calm Calm - N/A   Mostly Cloudy
6:56 AM 19.0 °F 12.3 °F 16.2 °F 89% 30.05 in 10.0 mi NW 4.6 mph - N/A   Scattered Clouds
7:43 AM 19.4 °F 11.5 °F 17.6 °F 93% 29.93 in 10.0 mi NNE 5.8 mph - N/A   Mostly Cloudy
7:56 AM 20.1 °F 12.3 °F 17.1 °F 88% 30.01 in 10.0 mi NNE 5.8 mph - N/A   Scattered Clouds
8:25 AM 19.4 °F 10.4 °F 17.6 °F 93% 29.91 in 2.5 mi NNE 6.9 mph - 0.00 in Snow Light Snow
8:28 AM 19.4 °F 11.5 °F 17.6 °F 93% 29.91 in 3.0 mi NNE 5.8 mph - 0.00 in Snow Light Snow
8:40 AM 19.4 °F 11.5 °F 17.6 °F 93% 29.91 in 2.0 mi NNE 5.8 mph - 0.00 in Snow Light Snow
8:56 AM 20.1 °F 12.3 °F 18.1 °F 92% 30.00 in 2.0 mi NNE 5.8 mph - 0.00 in Snow Light Snow
9:04 AM 19.4 °F 11.5 °F 17.6 °F 93% 29.91 in 4.0 mi NNE 5.8 mph - 0.00 in Snow Light Snow
9:19 AM 21.2 °F 14.9 °F 17.6 °F 86% 29.90 in 1.8 mi NNE 4.6 mph - 0.00 in Snow Light Snow
9:24 AM 21.2 °F 14.9 °F 17.6 °F 86% 29.90 in 1.0 mi NNE 4.6 mph - 0.00 in Snow Light Snow
9:31 AM 21.2 °F 14.9 °F 17.6 °F 86% 29.90 in 1.2 mi North 4.6 mph - 0.00 in Snow Light Snow
9:44 AM 21.2 °F 12.6 °F 17.6 °F 86% 29.90 in 1.2 mi North 6.9 mph - 0.00 in Snow Light Snow
9:56 AM 21.2 °F - 19.4 °F 93% 29.89 in 1.5 mi Calm Calm - N/A Snow Light Snow
10:06 AM 21.2 °F 13.6 °F 19.4 °F 93% 29.89 in 1.0 mi North 5.8 mph - 0.00 in Snow Light Snow
10:16 AM 21.2 °F 12.6 °F 19.4 °F 93% 29.88 in 0.8 mi NNE 6.9 mph - 0.00 in Snow Light Snow
10:25 AM 21.2 °F 12.6 °F 19.4 °F 93% 29.88 in 0.5 mi NNE 6.9 mph - 0.00 in Fog , Snow Light Snow
10:56 AM 21.0 °F 11.4 °F 19.0 °F 92% 29.95 in 0.8 mi NNE 8.1 mph - 0.00 in Snow Light Snow
11:04 AM 21.2 °F 11.7 °F 19.4 °F 93% 29.84 in 0.5 mi NNE 8.1 mph - 0.00 in Fog , Snow Light Snow
11:25 AM 21.2 °F 10.9 °F 19.4 °F 93% 29.83 in 0.8 mi North 9.2 mph - 0.00 in Snow Light Snow
11:30 AM 21.2 °F 12.6 °F 19.4 °F 93% 29.82 in 1.2 mi North 6.9 mph - 0.00 in Snow Light Snow
11:45 AM 21.2 °F 11.7 °F 17.6 °F 86% 29.82 in 1.2 mi NNW 8.1 mph - 0.00 in Snow Light Snow
11:49 AM 21.2 °F 10.9 °F 17.6 °F 86% 29.81 in 2.0 mi NNW 9.2 mph - 0.00 in Snow Light Snow
11:56 AM 20.1 °F 10.3 °F 18.1 °F 92% 29.90 in 3.0 mi NNW 8.1 mph - 0.00 in Snow Light Snow
12:14 PM 19.4 °F 9.5 °F 17.6 °F 93% 29.79 in 2.0 mi NNW 8.1 mph - 0.00 in Snow Light Snow
12:22 PM 19.4 °F 8.6 °F 17.6 °F 93% 29.79 in 1.2 mi NNW 9.2 mph - 0.00 in Snow Light Snow
12:29 PM 19.4 °F 8.6 °F 17.6 °F 93% 29.80 in 0.8 mi NNW 9.2 mph - 0.00 in Snow Light Snow
12:39 PM 19.4 °F 9.5 °F 17.6 °F 93% 29.80 in 0.8 mi NNW 8.1 mph - 0.00 in Snow Light Snow
12:49 PM 19.4 °F 9.5 °F 15.8 °F 86% 29.79 in 1.0 mi North 8.1 mph - 0.00 in Snow Light Snow
12:56 PM 19.4 °F 8.6 °F 15.8 °F 86% 29.79 in 1.0 mi NNW 9.2 mph - N/A Snow Light Snow
1:08 PM 19.4 °F 8.6 °F 15.8 °F 86% 29.78 in 1.2 mi North 9.2 mph - 0.00 in Snow Light Snow
1:18 PM 19.4 °F 7.9 °F 15.8 °F 86% 29.77 in 0.8 mi North 10.4 mph - 0.00 in Snow Light Snow
1:21 PM 19.4 °F 8.6 °F 15.8 °F 86% 29.77 in 0.5 mi North 9.2 mph - 0.00 in Fog , Snow Light Snow
1:26 PM 19.4 °F 8.6 °F 15.8 °F 86% 29.77 in 0.5 mi NNW 9.2 mph - 0.00 in Fog , Snow Light Snow
1:56 PM 19.0 °F 8.2 °F 16.2 °F 89% 29.86 in 0.5 mi NNW 9.2 mph - 0.00 in Fog , Snow Light Snow
2:14 PM 19.4 °F 9.5 °F 15.8 °F 86% 29.76 in 0.8 mi North 8.1 mph - 0.01 in Snow Light Snow
2:41 PM 17.6 °F 5.7 °F 15.8 °F 93% 29.76 in 0.5 mi NNW 10.4 mph - 0.01 in Fog , Snow Light Snow
2:56 PM 18.1 °F 7.1 °F 14.0 °F 84% 29.85 in 0.8 mi North 9.2 mph - 0.01 in Snow Light Snow
3:24 PM 17.6 °F 6.4 °F 14.0 °F 86% 29.76 in 1.0 mi North 9.2 mph - 0.00 in Snow Light Snow
3:56 PM 15.8 °F 3.4 °F 12.2 °F 86% 29.77 in 1.0 mi North 10.4 mph 18.4 mph N/A Snow Light Snow
4:23 PM 15.8 °F 3.4 °F 12.2 °F 86% 29.78 in 1.0 mi North 10.4 mph - 0.00 in Snow Light Snow
4:33 PM 15.8 °F 2.7 °F 12.2 °F 86% 29.78 in 1.0 mi North 11.5 mph - 0.00 in Snow Light Snow
4:38 PM 15.8 °F 2.1 °F 12.2 °F 86% 29.78 in 1.5 mi North 12.7 mph - 0.00 in Snow Light Snow
4:48 PM 15.8 °F 2.7 °F 10.4 °F 79% 29.78 in 1.8 mi North 11.5 mph - 0.00 in Snow Light Snow
4:56 PM 15.1 °F 3.3 °F 11.1 °F 84% 29.88 in 1.2 mi North 9.2 mph - 0.00 in Snow Light Snow
5:05 PM 15.8 °F 6.1 °F 10.4 °F 79% 29.78 in 1.0 mi NNW 6.9 mph - 0.00 in Snow Light Snow
5:10 PM 15.8 °F 4.2 °F 10.4 °F 79% 29.78 in 0.8 mi North 9.2 mph - 0.00 in Snow Light Snow
5:20 PM 14.0 °F 3.9 °F 10.4 °F 86% 29.79 in 1.0 mi North 6.9 mph 18.4 mph 0.00 in Snow Light Snow
5:28 PM 14.0 °F 2.9 °F 10.4 °F 86% 29.79 in 1.5 mi North 8.1 mph - 0.00 in Snow Light Snow
5:38 PM 14.0 °F 2.0 °F 10.4 °F 86% 29.80 in 2.0 mi North 9.2 mph - 0.00 in Snow Light Snow
5:46 PM 14.0 °F -0.8 °F 10.4 °F 86% 29.80 in 1.8 mi North 13.8 mph 18.4 mph 0.00 in Snow Light Snow
5:56 PM 14.0 °F -0.2 °F 10.0 °F 84% 29.91 in 1.8 mi North 12.7 mph 17.3 mph 0.00 in Snow Light Snow
6:03 PM 14.0 °F 1.2 °F 10.4 °F 86% 29.81 in 2.0 mi North 10.4 mph - 0.00 in Snow Light Snow
6:11 PM 12.2 °F -2.5 °F 10.4 °F 92% 29.81 in 2.0 mi North 12.7 mph - 0.00 in Snow Light Snow
6:29 PM 12.2 °F -1.8 °F 8.6 °F 85% 29.83 in 3.0 mi North 11.5 mph - 0.00 in Snow Light Snow
6:37 PM 12.2 °F -2.5 °F 8.6 °F 85% 29.83 in 2.5 mi North 12.7 mph - 0.00 in Snow Light Snow
6:43 PM 12.2 °F -2.5 °F 8.6 °F 85% 29.83 in 1.8 mi North 12.7 mph - 0.00 in Snow Light Snow
6:56 PM 12.2 °F -1.8 °F 8.6 °F 85% 29.84 in 2.0 mi NNW 11.5 mph - N/A Snow Light Snow
7:19 PM 10.4 °F -8.2 °F 6.8 °F 85% 29.86 in 4.0 mi North 19.6 mph 24.2 mph 0.00 in Snow Light Snow
7:29 PM 10.4 °F -5.4 °F 6.8 °F 85% 29.86 in 3.0 mi North 13.8 mph 20.7 mph 0.00 in Snow Light Snow
7:56 PM 11.1 °F -4.5 °F 6.1 °F 80% 29.97 in 3.0 mi North 13.8 mph 23.0 mph 0.00 in Snow Light Snow
8:26 PM 10.4 °F -4.1 °F 5.0 °F 79% 29.89 in 3.0 mi North 11.5 mph 21.9 mph 0.00 in Snow Light Snow
8:42 PM 10.4 °F -7.2 °F 5.0 °F 79% 29.89 in 3.0 mi North 17.3 mph 23.0 mph 0.00 in Snow Light Snow
8:56 PM 11.1 °F -3.9 °F 5.0 °F 76% 30.00 in 3.0 mi North 12.7 mph 25.3 mph 0.00 in Snow Light Snow
9:00 PM 10.4 °F -7.2 °F 5.0 °F 79% 29.90 in 2.5 mi North 17.3 mph 23.0 mph 0.00 in Snow Light Snow
9:07 PM 10.4 °F -6.6 °F 5.0 °F 79% 29.91 in 3.0 mi North 16.1 mph 25.3 mph 0.00 in Snow Light Snow
9:22 PM 10.4 °F -5.4 °F 5.0 °F 79% 29.92 in 6.0 mi North 13.8 mph 26.5 mph 0.00 in Snow Light Snow
9:56 PM 10.4 °F -6.0 °F 5.0 °F 79% 29.92 in 4.0 mi North 15.0 mph 26.5 mph N/A Snow Light Snow
10:05 PM 10.4 °F -4.8 °F 5.0 °F 79% 29.93 in 4.0 mi North 12.7 mph 20.7 mph 0.00 in Snow Light Snow
10:21 PM 10.4 °F -6.6 °F 5.0 °F 79% 29.93 in 6.0 mi North 16.1 mph 20.7 mph 0.00 in Snow Light Snow
10:30 PM 10.4 °F -4.1 °F 5.0 °F 79% 29.94 in 2.5 mi North 11.5 mph 21.9 mph 0.00 in Snow Light Snow
10:34 PM 10.4 °F -4.8 °F 6.8 °F 85% 29.94 in 1.2 mi NNW 12.7 mph 19.6 mph 0.00 in Snow Light Snow
10:38 PM 10.4 °F -3.3 °F 6.8 °F 85% 29.94 in 1.0 mi NNW 10.4 mph - 0.00 in Snow Light Snow
10:44 PM 10.4 °F -4.8 °F 6.8 °F 85% 29.95 in 1.5 mi NNW 12.7 mph - 0.00 in Snow Light Snow
10:56 PM 10.0 °F -6.5 °F 6.1 °F 84% 30.05 in 2.0 mi NNW 15.0 mph 18.4 mph 0.00 in Snow Light Snow
10:59 PM 10.4 °F -6.0 °F 6.8 °F 85% 29.95 in 1.8 mi NNW 15.0 mph 20.7 mph 0.00 in Snow Light Snow
11:07 PM 10.4 °F -5.4 °F 5.0 °F 79% 29.96 in 1.8 mi NNW 13.8 mph 20.7 mph 0.00 in Snow Light Snow
11:18 PM 8.6 °F -9.5 °F 5.0 °F 85% 29.96 in 2.5 mi North 17.3 mph 20.7 mph 0.00 in Snow Light Snow
11:56 PM 9.1 °F -5.6 °F 4.1 °F 80% 30.10 in 3.0 mi NNW 11.5 mph 24.2 mph 0.00 in Snow Light Snow